DAAGLXGB

Guest
Details From DAAG - Alger Houari Boumediene
To LXGB - Gibraltar
Flight Number -
Tags decoded
Created
Modified
Stats Distance 679 nm / 1,257 km
Max Altitude 0 ft / 0 m
Waypoints 5
Social Downloads 0
Likes 0
Share VATSIM

Download

Looking for another format? Having issues loading an existing format? Contact us
Advertisement - Login to hide

Notes

Requested: DAAG CELBA TERSA XAVIR VICTR LXGB

Route

DAAG CELBA TERSA XAVIR LXGB

ID Type Via Altitude (ft/m) Position (lat/lon) Dist (leg/tot) Name
O DAAG APT - 0 / 0 36.69752 / 3.21308 - / 0 nm Alger Houari Boumediene
CELBA FIX - 0 / 0 37.12537 / 2.90833 29 / 29 nm
TERSA FIX - 0 / 0 40.72502 / -2.13783 319 / 349 nm
XAVIR FIX - 0 / 0 36.00415 / -5.24306 318 / 668 nm
O LXGB APT - 0 / 0 36.15121 / -5.34966 10 / 678 nm Gibraltar

Altitude Profile

Advertisement - Login to hide

Weather


0- 5 10 15 20 25 30 35+ Temperature / °C

Clouds and Precipitation
Forecast for 2018-10-22 00:00 UTC. Updated 3 hours ago

Ground ~20,000 ft ~40,000 ft Winds

DAAG

Details ICAO DAAG (ALG)
Name Alger Houari Boumediene
Region Algeria
Timezone Africa/Algiers (UTC+1.0)
Stats Elevation 82 ft / 25 m (AMSL)
Location 36.697500° 3.213080°
Runways 2
Magnetic Variation 1.145° E

METAR

DAAG 220100Z 24002KT 6000 FEW020 SCT200 18/17 Q1018

Decode

TAF

TAF DAAG 212300Z 2200/2224 VRB02KT 8000 FEW020 PROB40 TEMPO 2200/2206 3000 BR BKN015 BECMG 2209/2212 36010KT TEMPO 2210/2218 FEW023TCU BECMG 2218/2221 VRB02KT

Decode

Departure Runways

ID Width Length Bearing (true/mag) Surface Threshold Overrun Markings Lighting
05 197 ft / 60 m 11,459 ft / 3,493 m 52.87° / 51.73° ASPHALT 0 ft / 0 m 0 ft / 0 m PREC-APP EDGE THRESHOLD
09 148 ft / 45 m 11,442 ft / 3,487 m 91.75° / 90.61° ASPHALT 0 ft / 0 m 1,017 ft / 310 m PREC-APP EDGE THRESHOLD
23 197 ft / 60 m 11,459 ft / 3,493 m 232.89° / 231.75° ASPHALT 0 ft / 0 m 0 ft / 0 m PREC-APP EDGE THRESHOLD
27 148 ft / 45 m 11,442 ft / 3,487 m 271.78° / 270.63° ASPHALT 0 ft / 0 m 0 ft / 0 m PREC-APP EDGE THRESHOLD

LXGB

Details ICAO LXGB (GIB)
Name Gibraltar Int'l
Region Gibralter
Timezone Europe/Gibraltar (UTC+2.0)
Stats Elevation 15 ft / 5 m (AMSL)
Location 36.151200° -5.349740°
Runways 1
Magnetic Variation 1.026° W

METAR

LXGB 220050Z AUTO 05011KT 8000 // FEW016/// BKN027/// 20/19 Q1019

Decode

TAF

Not found

Destination Runways

ID Width Length Bearing (true/mag) Surface Threshold Overrun Markings Lighting
09 148 ft / 45 m 5,836 ft / 1,779 m 87.54° / 88.57° ASPHALT 456 ft / 139 m 56 ft / 17 m UK-PREC-APP EDGE THRESHOLD REIL-UNI
27 148 ft / 45 m 5,836 ft / 1,779 m 267.56° / 268.58° ASPHALT 328 ft / 100 m 141 ft / 43 m UK-PREC-APP EDGE THRESHOLD REIL-UNI

Popular Alternatives